Regional Weather Roundup
Issued by NWS

Home | Current Version | Previous Version | Graphics & Text | Print | Product List | Glossary On
Versions: 1 2 3 4 5 6 7 8 9 10 11 12 13 14 15 16 17 18 19 20 21 22 23 24 25 26 27 28 29 30 31 32 33 34 35 36 37 38 39 40 41 42 43 44 45 46 47 48 49 50
000
ASUS43 KLMK 131002
RWRKY
KENTUCKY REGIONAL WEATHER ROUNDUP
NATIONAL WEATHER SERVICE LOUISVILLE KY
500 AM EST SAT FEB 13 2016

NOTE "FAIR" INDICATES FEW OR NO CLOUDS BELOW 12,000 FEET
WITH NO SIGNIFICANT WEATHER AND/OR OBSTRUCTIONS TO VISIBILITY.

KYZ001>023-026-027-061>063-070>075-131100-
WESTERN AND SOUTH CENTRAL KENTUCKY

CITY           SKY/WX    TMP DP  RH WIND       PRES   REMARKS
PADUCAH        PTCLDY    19   7  59 N12       30.54R WCI   7
HENDERSON      CLEAR     16   3  57 N8G16     30.54S WCI   5
OWENSBORO      CLEAR     17   5  59 N14       30.53R WCI   3
HOPKINSVILLE   CLEAR     21   9  61 N9G16     30.48R WCI  10
BOWLING GREEN  CLEAR     21   6  52 NW7       30.48R WCI  12
GLASGOW        NOT AVBL
$$

KYZ024-025-028>034-038-045-046-053-131100-
NORTH CENTRAL KENTUCKY

CITY           SKY/WX    TMP DP  RH WIND       PRES   REMARKS
LOUISVILLE/SDF PTCLDY    18   2  49 N15       30.47R WCI   4
LOUISVILLE/LOU PTCLDY    18   2  49 N7        30.47R WCI   9
FORT KNOX      PTCLDY    16   6  66 NW9       30.43R WCI   4
$$

KYZ035>037-039>044-047>052-055>060-089>105-131100-
NORTHEAST KENTUCKY

CITY           SKY/WX    TMP DP  RH WIND       PRES   REMARKS
LEXINGTON      MOCLDY    17   5  59 NW13      30.39R WCI   4
COVINGTON      PTCLDY    13   2  61 NW16      30.40R WCI  -3
FRANKFORT      PTCLDY    17   2  51 N12       30.41R WCI   4
$$

KYZ054-064>069-076>088-106>120-131100-
SOUTHEAST KENTUCKY

CITY           SKY/WX    TMP DP  RH WIND       PRES   REMARKS
JACKSON        LGT SNOW  17  10  74 NW8       30.32R WCI   7
LONDON         FLURRIES  21  12  68 NW9       30.34R WCI  11
SOMERSET       NOT AVBL
MIDDLESBORO    NOT AVBL
MONTICELLO     PTSUNNY   20  11  68 N13G18    30.40R WCI   7
$$




USA.gov is the U.S. government's official web portal to all federal, state and local government web resources and services.